Date String (YYYY-MM-DD hh:mm:ss) UTC,Instrument flags,Ambient pressure (hPa),Sample flow (lpm),Bypass flow (lpm),Sample temperature (°C),Ambient temperature (°C),ASC tube jacket temperature (°C),LED temperature (°C),Box temperature (°C),Sample RH (%),Span deviation,Mass concentration (μg/m³),Mass concentration (μg/m³),Mass concentration (μg/m³)
DateTimeUTC,F1_M11,P_M11,Q1_M11,Q2_M11,T1_M11,T2_M11,T3_M11,T4_M11,T5_M11,U1_M11,ZSPAN_M11,X2_M11,X0_M11,X1_M11
2023-03-07 22:00:00,,0824.4,5.00,0.00,22.3,20.7,00.0,31.1,24.0,12.7,-000.4,0006.90,0009.89,0006.58
2023-03-07 22:01:00,,0824.5,5.01,0.00,22.3,20.7,00.0,31.1,24.0,12.8,-000.5,0006.96,0009.92,0006.62
2023-03-07 22:02:00,,0824.8,5.00,0.00,22.3,20.6,00.0,31.1,24.0,12.8,-000.9,0007.00,0009.94,0006.66
2023-03-07 22:03:00,,0824.6,5.00,0.00,22.3,20.6,00.0,31.1,23.9,12.7,-000.5,0007.01,0009.84,0006.68
2023-03-07 22:04:00,,0824.6,5.00,0.00,22.3,20.5,00.0,31.1,23.9,12.6,-000.8,0007.04,0009.74,0006.71
2023-03-07 22:05:00,,0824.6,5.00,0.00,22.3,20.5,00.0,31.1,23.9,12.8,-001.0,0007.09,0009.79,0006.73
2023-03-07 22:06:00,,0824.6,5.00,0.00,22.2,20.5,00.0,31.1,23.9,12.7,-001.2,0007.13,0009.72,0006.76
2023-03-07 22:07:00,,0824.6,5.01,0.00,22.2,20.4,00.0,31.0,23.9,12.8,-001.7,0007.15,0009.75,0006.78
2023-03-07 22:08:00,,0824.7,5.00,0.00,22.2,20.4,00.0,31.0,23.9,12.8,-001.6,0007.18,0009.72,0006.80
2023-03-07 22:09:00,,0824.7,4.99,0.00,22.2,20.4,00.0,31.0,23.9,12.9,-001.6,0007.22,0009.79,0006.82
2023-03-07 22:10:00,,0824.6,5.00,0.00,22.2,20.4,00.0,31.0,23.9,12.9,-001.2,0007.19,0009.61,0006.83
2023-03-07 22:11:00,,0824.7,5.00,0.00,22.2,20.6,00.0,31.0,23.9,12.8,-000.8,0007.20,0009.99,0006.85
2023-03-07 22:12:00,,0824.7,5.01,0.00,22.3,21.7,00.0,31.0,24.1,12.7,-000.7,0007.21,0010.23,0006.86
2023-03-07 22:13:00,,0824.7,5.01,0.00,22.4,22.5,00.0,31.0,24.3,12.7,-000.8,0007.24,0010.32,0006.87
2023-03-07 22:14:00,,0824.7,4.98,0.00,22.4,22.2,00.0,31.0,24.3,12.6,-000.6,0007.25,0010.33,0006.87
2023-03-07 22:15:00,,0824.7,5.01,0.00,22.4,21.8,00.0,31.1,24.2,12.8,-000.4,0007.27,0010.38,0006.87
2023-03-07 22:16:00,,0824.6,5.01,0.00,22.4,21.5,00.0,31.1,24.1,12.7,-000.1,0007.23,0010.28,0006.86
2023-03-07 22:17:00,,0824.8,5.00,0.00,22.4,21.3,00.0,31.1,24.1,12.8,0000.2,0007.20,0010.24,0006.85
2023-03-07 22:18:00,,0824.6,5.00,0.00,22.3,21.0,00.0,31.1,24.0,12.6,0000.5,0007.20,0010.24,0006.86
2023-03-07 22:19:00,,0824.6,5.00,0.00,22.3,20.8,00.0,31.1,23.9,12.7,0000.4,0007.20,0010.22,0006.86
2023-03-07 22:20:00,,0824.7,5.00,0.00,22.3,20.7,00.0,31.1,23.9,12.8,0000.6,0007.16,0010.13,0006.84
2023-03-07 22:21:00,,0824.7,5.01,0.00,22.3,20.6,00.0,31.1,23.9,12.9,0000.2,0007.14,0010.12,0006.83
2023-03-07 22:22:00,,0824.7,5.01,0.00,22.2,20.5,00.0,31.0,23.9,12.9,-000.2,0007.15,0009.84,0006.80
2023-03-07 22:23:00,,0824.7,5.00,0.00,22.2,20.5,00.0,31.0,23.8,12.9,-000.3,0007.14,0009.60,0006.79
2023-03-07 22:24:00,,0824.7,4.98,0.00,22.2,20.4,00.0,31.0,23.8,12.8,0000.2,0007.14,0009.56,0006.79
2023-03-07 22:25:00,,0824.7,4.99,0.00,22.2,20.3,00.0,31.0,23.8,12.9,0000.1,0007.14,0009.74,0006.79
2023-03-07 22:26:00,,0824.6,5.01,0.00,22.1,20.3,00.0,31.0,23.8,12.9,0000.4,0007.11,0009.83,0006.80
2023-03-07 22:27:00,,0824.8,5.00,0.00,22.1,20.3,00.0,31.0,23.7,13.0,0000.0,0007.15,0009.89,0006.81
2023-03-07 22:28:00,,0824.9,4.99,0.00,22.1,20.4,00.0,31.0,23.7,13.1,0000.1,0007.16,0009.90,0006.80
2023-03-07 22:29:00,,0824.9,5.01,0.00,22.1,20.4,00.0,31.0,23.8,13.1,0000.3,0007.17,0010.21,0006.80
2023-03-07 22:30:00,,0824.9,5.01,0.00,22.1,20.5,00.0,30.9,23.8,13.0,0000.0,0007.17,0010.28,0006.80
2023-03-07 22:31:00,,0824.9,5.00,0.00,22.2,21.5,00.0,30.9,24.0,13.0,-000.3,0007.17,0010.30,0006.79
2023-03-07 22:32:00,,0824.9,5.01,0.00,22.3,22.5,00.0,31.0,24.2,12.9,-000.3,0007.19,0010.35,0006.78
2023-03-07 22:33:00,,0824.9,5.01,0.00,22.3,22.3,00.0,31.0,24.2,12.8,-000.4,0007.19,0010.38,0006.78
2023-03-07 22:34:00,,0824.9,4.98,0.00,22.3,21.8,00.0,31.0,24.1,12.9,-000.6,0007.18,0010.34,0006.78
2023-03-07 22:35:00,,0824.9,4.98,0.00,22.3,21.5,00.0,31.0,24.0,12.9,-001.0,0007.15,0010.30,0006.75
2023-03-07 22:36:00,,0824.9,5.01,0.00,22.3,21.3,00.0,31.0,24.1,12.9,-001.0,0007.13,0010.12,0006.75
2023-03-07 22:37:00,,0824.9,5.00,0.00,22.3,21.2,00.0,31.0,24.1,13.0,-001.3,0007.11,0009.80,0006.74
2023-03-07 22:38:00,,0824.9,5.01,0.00,22.3,21.1,00.0,31.0,24.0,13.1,-001.7,0007.09,0009.89,0006.72
2023-03-07 22:39:00,,0824.9,5.00,0.00,22.3,21.0,00.0,31.0,24.0,13.0,-001.5,0007.09,0009.89,0006.72
2023-03-07 22:40:00,,0824.9,5.01,0.00,22.3,20.9,00.0,31.0,24.0,13.0,-001.4,0007.14,0009.73,0006.74
2023-03-07 22:41:00,,0824.9,4.99,0.00,22.3,20.8,00.0,31.0,24.0,13.2,-001.3,0007.14,0009.63,0006.74
2023-03-07 22:42:00,,0824.9,4.99,0.00,22.3,20.8,00.0,31.0,24.0,13.2,-001.1,0007.13,0009.60,0006.76
2023-03-07 22:43:00,,0824.9,5.00,0.00,22.3,20.7,00.0,31.0,23.9,13.2,-001.2,0007.13,0009.58,0006.77
2023-03-07 22:44:00,,0825.0,5.00,0.00,22.2,20.7,00.0,31.0,23.9,13.2,-001.0,0007.13,0009.79,0006.76
2023-03-07 22:45:00,,0825.0,5.00,0.00,22.2,20.6,00.0,31.0,23.9,13.2,-000.6,0007.13,0010.05,0006.77
2023-03-07 22:46:00,,0825.1,5.00,0.00,22.2,20.6,00.0,31.0,23.9,13.1,-000.7,0007.16,0010.11,0006.79
2023-03-07 22:47:00,,0825.0,5.01,0.00,22.2,20.5,00.0,31.0,23.9,13.1,-000.7,0007.21,0010.20,0006.81
2023-03-07 22:48:00,,0825.1,5.00,0.00,22.2,20.5,00.0,31.0,23.9,13.1,-000.7,0007.25,0010.36,0006.82
2023-03-07 22:49:00,,0825.1,5.02,0.00,22.2,20.3,00.0,31.0,23.8,13.1,-000.4,0007.28,0010.32,0006.85
2023-03-07 22:50:00,,0825.1,5.01,0.00,22.1,20.3,00.0,31.0,23.8,13.1,-000.5,0007.29,0010.32,0006.87
2023-03-07 22:51:00,,0825.2,5.01,0.00,22.1,20.5,00.0,30.9,23.8,13.1,-000.7,0007.29,0010.30,0006.87
2023-03-07 22:52:00,,0825.2,4.99,0.00,22.2,21.6,00.0,30.9,24.1,13.1,-000.5,0007.32,0010.34,0006.89
2023-03-07 22:53:00,,0825.2,4.99,0.00,22.3,22.8,00.0,31.0,24.3,13.1,-000.2,0007.36,0010.43,0006.90
2023-03-07 22:54:00,,0825.2,5.03,0.00,22.4,23.0,00.0,31.0,24.5,13.1,0000.3,0007.36,0010.44,0006.91
2023-03-07 22:55:00,,0825.2,5.00,0.00,22.5,22.6,00.0,31.0,24.4,13.0,-000.2,0007.38,0010.38,0006.92
2023-03-07 22:56:00,,0825.1,5.01,0.00,22.5,22.2,00.0,31.1,24.4,13.0,-000.7,0007.40,0010.08,0006.94
2023-03-07 22:57:00,,0825.1,5.02,0.00,22.5,21.8,00.0,31.1,24.3,13.0,-001.0,0007.40,0010.33,0006.95
2023-03-07 22:58:00,,0825.1,4.98,0.00,22.5,21.5,00.0,31.1,24.2,12.9,-001.2,0007.41,0010.38,0006.95
2023-03-07 22:59:00,,0825.1,5.00,0.00,22.5,21.3,00.0,31.1,24.2,12.8,-001.2,0007.42,0010.28,0006.97
